Location: M�con, France
(46.3049°N, 4.8371°E)
Time: 18:27:22
(UTC+01:00)

ISS - Visible Passes

Search period start: 16 December 2025 00:00
Search period end: 26 December 2025 00:00
Orbit: 416 x 420 km, 51.6° (Epoch: 15 December)

Date Brightness Start Highest point End Pass type
(mag) Time Alt. Az. Time Alt. Az. Time Alt. Az.
16 Dec -3.0 06:26:43 23° SSW 06:28:29 50° SE 06:31:47 10° ENE visible
17 Dec -1.7 05:41:19 28° ESE 05:41:19 28° ESE 05:43:36 10° ENE visible
17 Dec -3.6 07:14:17 13° W 07:17:13 54° NNW 07:20:33 10° ENE visible
18 Dec -3.9 06:28:39 60° W 06:29:08 74° NNW 06:32:32 10° ENE visible
19 Dec -1.6 05:42:51 26° ENE 05:42:51 26° ENE 05:44:28 10° ENE visible
19 Dec -3.0 07:15:47 16° WNW 07:18:04 36° N 07:21:14 10° ENE visible
20 Dec -3.2 06:29:51 42° NNW 06:29:53 42° NNW 06:33:09 10° ENE visible
21 Dec -1.4 05:43:50 20° NE 05:43:50 20° NE 05:45:04 10° ENE visible
21 Dec -2.7 07:16:45 16° WNW 07:18:56 31° N 07:22:01 10° ENE visible
22 Dec -2.8 06:30:39 33° N 06:30:42 33° N 06:33:48 10° ENE visible
23 Dec -1.2 05:44:30 18° NE 05:44:30 18° NE 05:45:38 10° ENE visible
23 Dec -2.8 07:17:25 16° NW 07:19:45 35° N 07:22:54 10° ENE visible
24 Dec -2.7 06:31:14 31° N 06:31:29 32° N 06:34:35 10° ENE visible
25 Dec -1.3 05:45:01 19° NE 05:45:01 19° NE 05:46:18 10° ENE visible
25 Dec -3.3 07:17:56 16° NW 07:20:26 51° NNE 07:23:44 10° E visible
